#timestamp,LO_Frequency,Hit,StdDev 
1505664015.1,286046999.0,N
1505664035.8,286047000.2,N
1505664055.7,286046999.7,N
1505664075.5,286046998.4,N
1505664095.3,286046999.6,N
1505664115.2,286046995.1,N
1505664135.9,286046998.5,N
1505664155.7,286046995.1,N
1505664175.6,286046994.9,N
1505664195.4,286046994.9,N
1505664215.2,286046993.8,Y
1505664235.1,286046997.8,P
1505664236.0,286046997.8,P
1505664255.8,286046995.3,P
1505664275.6,286046997.9,N
1505664295.5,286046993.7,Y
1505664315.3,286046995.0,P
1505664335.1,286046993.4,P
1505664355.9,286046995.8,N
1505664375.7,286046996.1,N
1505664395.5,286046998.0,N
1505664415.3,286046996.4,N
1505664435.2,286046988.7,Y
1505664455.0,286046996.4,P
1505664455.9,286046996.4,P
1505664475.8,286046996.3,P
1505664495.6,286046994.7,Y
1505664515.4,286046999.6,P
1505664535.3,286046997.2,N
1505664555.1,286046996.9,N
1505664556.0,286046996.9,N
1505664575.8,286046993.6,Y
1505664595.7,286046997.6,P
1505664615.5,286046997.9,P
1505664635.3,286046995.5,P
1505664655.2,286046992.1,Y
1505664675.9,286046997.2,P
1505664695.7,286046995.3,P
1505664715.6,286046996.8,P
1505664735.4,286046995.5,Y
1505664755.2,286046999.0,P
1505664775.1,286046995.3,P
1505664776.0,286046995.3,P
1505664795.8,286046990.5,Y
1505664815.6,286046994.3,P
1505664835.5,286046993.5,P
1505664855.3,286046990.2,P
1505664875.1,286046992.4,Y
1505664895.9,286046998.9,P
1505664915.7,286046996.5,N
1505664935.5,286046998.3,N
1505664955.4,286046999.8,N
1505664975.2,286046998.2,N
1505664995.0,286046998.5,N
1505664995.9,286046998.5,N
1505665015.8,286046998.5,N
1505665035.6,286046998.4,N
1505665055.4,286047001.2,N
1505665075.2,286046998.7,N
1505665095.1,286046996.3,N
1505665096.0,286046996.3,N
1505665115.8,286046991.7,Y
1505665135.7,286046992.4,P
1505665155.5,286046993.1,N
1505665175.3,286046994.7,N
1505665195.1,286046996.0,N
1505665215.9,286046996.2,N
1505665235.7,286046996.9,N
1505665255.5,286046998.0,N
1505665275.4,286046998.0,N
1505665295.2,286046996.7,N
1505665315.0,286046999.1,N
1505665315.9,286046999.1,N
1505665335.8,286046998.7,N
1505665355.6,286046997.6,N
1505665375.4,286046996.7,N
1505665395.3,286046995.9,N
1505665415.1,286046990.2,Y
1505665416.0,286046990.2,P
1505665435.8,286046994.2,N
1505665455.7,286046997.1,N
1505665475.5,286046998.4,N
1505665495.3,286046999.7,N
1505665515.2,286047002.0,N
1505665535.9,286047000.2,N
1505665555.7,286046999.7,N
1505665575.5,286046998.7,N
1505665595.4,286046996.9,N
1505665615.2,286046995.5,N
1505665635.0,286046996.2,N
1505665635.9,286046996.2,N
1505665655.8,286046998.8,N
1505665675.6,286047000.6,N
1505665695.4,286046998.7,N
1505665715.3,286047002.8,N
1505665735.1,286046998.7,N
1505665736.0,286046998.7,N
1505665755.8,286046996.7,N
1505665775.7,286046997.6,N
1505665795.5,286046996.1,N
1505665815.3,286046995.0,N
1505665835.2,286046997.1,N
1505665855.9,286047001.2,N
1505665875.7,286046996.8,N
1505665895.5,286046993.9,N
1505665915.4,286046991.8,Y
1505665935.2,286046993.8,P
1505665955.0,286046995.4,N
1505665956.0,286046995.4,N
1505665975.8,286047000.1,N
1505665995.6,286047006.3,N
1505666015.4,286047008.9,N
1505666035.3,286047008.5,N
1505666055.1,286047008.8,N
1505666075.8,286047009.1,N
1505666095.7,286047004.9,N
1505666115.5,286047006.8,N
1505666135.3,286047005.5,N
1505666155.2,286047003.0,N
1505666175.9,286047001.4,N
1505666195.7,286047002.3,N
1505666215.6,286047000.1,N
1505666235.4,286047000.7,N
1505666255.2,286046998.3,N
1505666275.0,286046999.4,N
1505666276.0,286046999.4,N
1505666295.8,286046996.7,N
1505666315.6,286046995.7,N
1505666335.4,286046995.4,N
1505666355.3,286046995.1,N
1505666375.1,286046998.0,N
1505666395.8,286046995.6,N
1505666415.7,286046994.7,N
1505666435.5,286046991.9,N
1505666455.3,286046990.8,N
1505666475.2,286046993.0,N
1505666495.9,286046991.8,N
1505666515.7,286046988.7,N
1505666535.6,286046989.6,N
1505666555.4,286046987.5,N
1505666575.2,286046990.0,N
1505666595.0,286046988.0,N
1505666596.0,286046988.0,N
1505666615.8,286046985.6,N
1505666635.6,286046986.3,N
1505666655.4,286046985.5,N
1505666675.3,286046988.3,N
1505666695.1,286046988.4,N
1505666715.8,286046987.4,N
1505666735.7,286046987.5,N
1505666755.5,286046989.7,N
1505666775.3,286046988.6,N
1505666795.2,286046989.1,N
1505666815.9,286046987.0,Y
1505666835.7,286046993.8,P
1505666855.6,286046992.3,P
1505666875.4,286046994.2,P
1505666895.2,286046993.1,Y
1505666915.1,286046997.1,P
1505666916.0,286046997.1,N
1505666935.8,286046997.7,N
1505666955.6,286046996.7,N
1505666975.5,286046998.8,N
1505666995.3,286046998.3,N
1505667015.1,286046999.1,N
1505667035.9,286047001.0,N
1505667055.7,286046999.6,N
1505667075.5,286046998.0,N
1505667095.4,286046993.7,Y
1505667115.2,286046997.5,P
1505667135.0,286046999.4,P
1505667135.9,286046999.4,N
1505667155.8,286046999.2,N
1505667175.6,286046997.1,Y
1505667195.4,286046998.1,P
1505667215.3,286046999.5,N
1505667235.1,286047000.8,N
1505667236.0,286047000.8,N
1505667255.8,286046999.1,N
1505667275.7,286046995.0,Y
1505667295.5,286046993.4,P
1505667315.3,286046996.8,N
1505667335.2,286047001.4,N
1505667355.9,286047008.5,N
1505667375.7,286047012.4,N
1505667395.5,286047011.2,N
1505667415.4,286047016.5,N
1505667435.2,286047014.7,N
1505667455.0,286047020.1,N
1505667455.9,286047020.1,N
1505667475.8,286047021.2,N
1505667495.6,286047021.3,N
1505667515.4,286047021.2,N
1505667535.3,286047024.7,N
1505667555.1,286047022.4,N
1505667556.0,286047022.4,N
1505667575.8,286047023.1,N
1505667595.7,286047020.5,N
